Tracking 28052 objects as of 25-Sep-2023
HD Live streaming from Space Station
objects crossing your sky now

HISPASAT 1A

Track HISPASAT 1A now!
HISPASAT 1A is classified as:


NORAD ID: 22116
Int'l Code: 1992-060A
Perigee: 36,053.7 km
Apogee: 36,071.7 km
Inclination: 13.5 °
Period: 1,449.9 minutes
Semi major axis: 42433 km
RCS: 7.143 m2 (large)
Launch date: September 10, 1992
Source: Spain (SPN)
Launch site: FRENCH GUIANA (FRGUI)
Your satellite tracking list
Your tracking list is empty




NASA's NSSDC Master Catalog

Two Line Element Set (TLE):
1 22116U 92060A   23267.54354181 -.00000148  00000-0  00000-0 0  9994
2 22116  13.5080  17.3329 0002127 189.4897 171.5605  0.99320034109605
Source of the keplerian elements: AFSPC